| time (UTC) | temp F | wind direction | speed knots | gust knots | rain 1hr in | rain 24hr in | rain mn in | humidity % | barometer mb |
| 20260504215542 | 71 | 216 | 2.6 | 9.6 | 0.00 | 0.00 | 0.00 | 40 | 1008.1 |
| 20260504215043 | 71 | 205 | 3.5 | 12.2 | 0.00 | 0.00 | 0.00 | 40 | 1008.1 |
| 20260504214550 | 71 | 219 | 4.3 | 12.2 | 0.00 | 0.00 | 0.00 | 39 | 1008.0 |
| 20260504214041 | 71 | 219 | 4.3 | 14.8 | 0.00 | 0.00 | 0.00 | 41 | 1008.1 |
| 20260504213542 | 71 | 169 | 6.1 | 14.8 | 0.00 | 0.00 | 0.00 | 39 | 1008.0 |
| 20260504213056 | 72 | 235 | 4.3 | 13.9 | 0.00 | 0.00 | 0.00 | 41 | 1008.0 |
| 20260504212542 | 72 | 185 | 3.5 | 10.4 | 0.00 | 0.00 | 0.00 | 41 | 1008.0 |
| 20260504212042 | 72 | 176 | 2.6 | 9.6 | 0.00 | 0.00 | 0.00 | 42 | 1008.0 |
| 20260504211557 | 72 | 220 | 4.3 | 9.6 | 0.00 | 0.00 | 0.00 | 41 | 1008.1 |
| 20260504211041 | 71 | 183 | 1.7 | 13.0 | 0.00 | 0.00 | 0.00 | 41 | 1008.2 |
| 20260504210545 | 71 | 229 | 2.6 | 13.0 | 0.00 | 0.00 | 0.00 | 40 | 1008.1 |
| 20260504210059 | 71 | 248 | 4.3 | 13.9 | 0.00 | 0.00 | 0.00 | 40 | 1008.1 |
| 20260504205544 | 71 | 203 | 5.2 | 13.9 | 0.00 | 0.00 | 0.00 | 39 | 1008.2 |
| 20260504205041 | 71 | 215 | 2.6 | 9.6 | 0.00 | 0.00 | 0.00 | 42 | 1008.0 |
| 20260504204551 | 71 | 238 | 4.3 | 12.2 | 0.00 | 0.00 | 0.00 | 40 | 1008.1 |
| 20260504204041 | 71 | 220 | 4.3 | 13.0 | 0.00 | 0.00 | 0.00 | 40 | 1008.2 |
| 20260504203541 | 72 | 226 | 3.5 | 13.0 | 0.00 | 0.00 | 0.00 | 41 | 1008.2 |
| 20260504203046 | 72 | 223 | 1.7 | 16.5 | 0.00 | 0.00 | 0.00 | 39 | 1008.2 |
| 20260504202542 | 72 | 185 | 1.7 | 16.5 | 0.00 | 0.00 | 0.00 | 41 | 1008.3 |
| 20260504202042 | 71 | 216 | 4.3 | 12.2 | 0.00 | 0.00 | 0.00 | 40 | 1008.4 |
| 20260504201552 | 72 | 212 | 5.2 | 12.2 | 0.00 | 0.00 | 0.00 | 40 | 1008.4 |
| 20260504201041 | 72 | 234 | 3.5 | 8.7 | 0.00 | 0.00 | 0.00 | 40 | 1008.6 |
| 20260504200541 | 72 | 246 | 1.7 | 15.6 | 0.00 | 0.00 | 0.00 | 42 | 1008.5 |
| 20260504200101 | 71 | 228 | 3.5 | 17.4 | 0.00 | 0.00 | 0.00 | 39 | 1008.6 |
| 20260504195542 | 71 | 202 | 7.0 | 17.4 | 0.00 | 0.00 | 0.00 | 39 | 1008.8 |
| 20260504195041 | 71 | 156 | 5.2 | 12.2 | 0.00 | 0.00 | 0.00 | 39 | 1008.7 |
| 20260504194550 | 72 | 240 | 2.6 | 13.0 | 0.00 | 0.00 | 0.00 | 39 | 1008.8 |
| 20260504194041 | 71 | 200 | 4.3 | 13.0 | 0.00 | 0.00 | 0.00 | 38 | 1008.8 |
| 20260504193542 | 72 | 137 | 2.6 | 9.6 | 0.00 | 0.00 | 0.00 | 39 | 1008.9 |
| 20260504193050 | 71 | 238 | 3.5 | 12.2 | 0.00 | 0.00 | 0.00 | 41 | 1009.0 |
| 20260504192543 | 72 | 246 | 4.3 | 12.2 | 0.00 | 0.00 | 0.00 | 41 | 1009.2 |
| 20260504192041 | 72 | 184 | 1.7 | 15.6 | 0.00 | 0.00 | 0.00 | 42 | 1009.3 |
| 20260504191606 | 71 | 207 | 4.3 | 15.6 | 0.00 | 0.00 | 0.00 | 40 | 1009.3 |
| 20260504191041 | 72 | 201 | 3.5 | 12.2 | 0.00 | 0.00 | 0.00 | 41 | 1009.4 |
| 20260504190541 | 71 | 168 | 1.7 | 10.4 | 0.00 | 0.00 | 0.00 | 41 | 1009.5 |
| 20260504190049 | 71 | 225 | 3.5 | 10.4 | 0.00 | 0.00 | 0.00 | 40 | 1009.6 |
| 20260504185541 | 71 | 258 | 2.6 | 9.6 | 0.00 | 0.00 | 0.00 | 39 | 1009.6 |
| 20260504185042 | 71 | 228 | 3.5 | 11.3 | 0.00 | 0.00 | 0.00 | 41 | 1009.7 |
| 20260504184551 | 70 | 231 | 3.5 | 11.3 | 0.00 | 0.00 | 0.00 | 42 | 1009.9 |
| 20260504184041 | 70 | 227 | 4.3 | 11.3 | 0.00 | 0.00 | 0.00 | 42 | 1010.1 |
| 20260504183543 | 70 | 236 | 2.6 | 9.6 | 0.00 | 0.00 | 0.00 | 42 | 1010.2 |
| 20260504183047 | 70 | 214 | 2.6 | 10.4 | 0.00 | 0.00 | 0.00 | 42 | 1010.3 |
| 20260504182542 | 70 | 244 | 3.5 | 10.4 | 0.00 | 0.00 | 0.00 | 42 | 1010.4 |
| 20260504182042 | 70 | 229 | 4.3 | 10.4 | 0.00 | 0.00 | 0.00 | 45 | 1010.4 |
| 20260504181552 | 70 | 234 | 3.5 | 10.4 | 0.00 | 0.00 | 0.00 | 42 | 1010.6 |
| 20260504181043 | 70 | 244 | 3.5 | 7.8 | 0.00 | 0.00 | 0.00 | 43 | 1010.5 |
| 20260504180541 | 69 | 226 | 2.6 | 7.8 | 0.00 | 0.00 | 0.00 | 43 | 1010.6 |
| 20260504180054 | 69 | 212 | 1.7 | 12.2 | 0.00 | 0.00 | 0.00 | 41 | 1010.6 |
| 20260504175540 | 69 | 265 | 2.6 | 12.2 | 0.00 | 0.00 | 0.00 | 44 | 1010.6 |
| 20260504175041 | 69 | 196 | 3.5 | 12.2 | 0.00 | 0.00 | 0.00 | 43 | 1010.7 |
| 20260504174554 | 68 | 178 | 2.6 | 12.2 | 0.00 | 0.00 | 0.00 | 46 | 1010.6 |
| 20260504174040 | 68 | 211 | 1.7 | 9.6 | 0.00 | 0.00 | 0.00 | 46 | 1010.7 |
| 20260504173542 | 69 | 182 | 1.7 | 6.1 | 0.00 | 0.00 | 0.00 | 45 | 1010.7 |
| 20260504173052 | 69 | 210 | 2.6 | 11.3 | 0.00 | 0.00 | 0.00 | 40 | 1010.7 |
| 20260504172541 | 69 | 200 | 2.6 | 11.3 | 0.00 | 0.00 | 0.00 | 44 | 1010.8 |
| 20260504172043 | 69 | 229 | 1.7 | 6.1 | 0.00 | 0.00 | 0.00 | 41 | 1010.8 |
| 20260504171555 | 68 | 234 | 1.7 | 11.3 | 0.00 | 0.00 | 0.00 | 43 | 1010.9 |
| 20260504171041 | 68 | 203 | 1.7 | 12.2 | 0.00 | 0.00 | 0.00 | 43 | 1010.9 |
| 20260504170544 | 67 | 225 | 5.2 | 12.2 | 0.00 | 0.00 | 0.00 | 41 | 1011.1 |
| 20260504151040 | 64 | 217 | 1.7 | 7.8 | 0.00 | 0.00 | 0.00 | 42 | 1012.7 |
| 20260504150541 | 64 | 214 | 2.6 | 7.8 | 0.00 | 0.00 | 0.00 | 44 | 1012.6 |
| 20260504141043 | 62 | 217 | 1.7 | 5.2 | 0.00 | 0.00 | 0.00 | 43 | 1012.7 |
| 20260504140541 | 61 | 210 | 1.7 | 6.1 | 0.00 | 0.00 | 0.00 | 43 | 1012.8 |
| 20260504130543 | 57 | 202 | 2.6 | 9.6 | 0.00 | 0.00 | 0.00 | 50 | 1012.8 |
| 20260504120117 | 52 | 190 | 1.7 | 6.1 | 0.00 | 0.00 | 0.00 | 57 | 1013.0 |
| 20260504110541 | 48 | 205 | 1.7 | 5.2 | 0.00 | 0.00 | 0.00 | 57 | 1013.0 |
| 20260504100541 | 48 | 165 | 2.6 | 4.3 | 0.00 | 0.00 | 0.00 | 53 | 1013.2 |
| 20260504081554 | 47 | 208 | 0.9 | 2.6 | 0.00 | 0.00 | 0.00 | 53 | 1013.6 |
| 20260504081042 | 47 | 208 | 0.9 | 4.3 | 0.00 | 0.00 | 0.00 | 53 | 1013.5 |
| 20260504080541 | 47 | 203 | 1.7 | 4.3 | 0.00 | 0.00 | 0.00 | 53 | 1013.6 |
| 20260504050541 | 48 | 192 | 2.6 | 4.3 | 0.00 | 0.00 | 0.00 | 51 | 1014.0 |
| 20260504045541 | 48 | 180 | 1.7 | 4.3 | 0.00 | 0.00 | 0.00 | 51 | 1014.0 |
| 20260504045041 | 48 | 154 | 2.6 | 4.3 | 0.00 | 0.00 | 0.00 | 51 | 1014.1 |
| 20260504044553 | 48 | 186 | 1.7 | 4.3 | 0.00 | 0.00 | 0.00 | 51 | 1014.0 |
| 20260504044041 | 48 | 184 | 0.9 | 3.5 | 0.00 | 0.00 | 0.00 | 52 | 1014.0 |
| 20260504043542 | 48 | 194 | 0.9 | 3.5 | 0.00 | 0.00 | 0.00 | 52 | 1014.0 |
| 20260504043110 | 48 | 205 | 1.7 | 3.5 | 0.00 | 0.00 | 0.00 | 52 | 1013.9 |
| 20260504042541 | 48 | 187 | 1.7 | 3.5 | 0.00 | 0.00 | 0.00 | 52 | 1013.9 |
| 20260504042040 | 48 | 194 | 1.7 | 3.5 | 0.00 | 0.00 | 0.00 | 51 | 1014.0 |
| 20260504041547 | 48 | 189 | 1.7 | 3.5 | 0.00 | 0.00 | 0.00 | 51 | 1014.0 |
| 20260504041040 | 48 | 196 | 0.9 | 3.5 | 0.00 | 0.00 | 0.00 | 51 | 1013.9 |
| 20260504040541 | 48 | 198 | 0.9 | 3.5 | 0.00 | 0.00 | 0.00 | 52 | 1013.8 |
| 20260504040055 | 48 | 208 | 1.7 | 3.5 | 0.00 | 0.00 | 0.00 | 52 | 1013.9 |
| 20260504035542 | 48 | 205 | 1.7 | 5.2 | 0.00 | 0.00 | 0.00 | 52 | 1013.9 |
| 20260504035042 | 48 | 188 | 2.6 | 5.2 | 0.00 | 0.00 | 0.00 | 51 | 1013.9 |
| 20260504034551 | 48 | 186 | 3.5 | 5.2 | 0.00 | 0.00 | 0.00 | 51 | 1013.8 |
| 20260504034041 | 48 | 184 | 2.6 | 4.3 | 0.00 | 0.00 | 0.00 | 51 | 1013.8 |
| 20260504033541 | 48 | 194 | 2.6 | 4.3 | 0.00 | 0.00 | 0.00 | 51 | 1013.8 |
| 20260504033101 | 49 | 184 | 1.7 | 4.3 | 0.00 | 0.00 | 0.00 | 51 | 1013.8 |
| 20260504032541 | 49 | 196 | 2.6 | 4.3 | 0.00 | 0.00 | 0.00 | 51 | 1013.8 |
| 20260504032041 | 49 | 185 | 1.7 | 4.3 | 0.00 | 0.00 | 0.00 | 50 | 1013.8 |
| 20260504031556 | 49 | 191 | 1.7 | 4.3 | 0.00 | 0.00 | 0.00 | 51 | 1013.7 |
| 20260504031041 | 48 | 202 | 0.9 | 2.6 | 0.00 | 0.00 | 0.00 | 51 | 1013.6 |
| 20260504030541 | 48 | 192 | 0.9 | 2.6 | 0.00 | 0.00 | 0.00 | 52 | 1013.7 |
| 20260504025541 | 49 | 196 | 0.0 | 1.7 | 0.00 | 0.00 | 0.00 | 51 | 1013.6 |
| 20260504025042 | 49 | 198 | 0.0 | 2.6 | 0.00 | 0.00 | 0.00 | 52 | 1013.6 |
| 20260504024547 | 49 | 193 | 0.9 | 2.6 | 0.00 | 0.00 | 0.00 | 50 | 1013.6 |
| 20260504024041 | 49 | 196 | 0.0 | 3.5 | 0.00 | 0.00 | 0.00 | 50 | 1013.5 |
| 20260504023541 | 49 | 196 | 0.9 | 3.5 | 0.00 | 0.00 | 0.00 | 50 | 1013.6 |
| 20260504023044 | 49 | 177 | 0.9 | 2.6 | 0.00 | 0.00 | 0.00 | 50 | 1013.6 |
| 20260504022543 | 49 | 173 | 0.0 | 2.6 | 0.00 | 0.00 | 0.00 | 51 | 1013.5 |
| 20260504022042 | 50 | 182 | 0.0 | 2.6 | 0.00 | 0.00 | 0.00 | 50 | 1013.5 |
| 20260504021552 | 50 | 0 | 0.9 | 2.6 | 0.00 | 0.00 | 0.00 | 49 | 1013.4 |
| 20260504021043 | 50 | 0 | 0.9 | 2.6 | 0.00 | 0.00 | 0.00 | 49 | 1013.5 |
| 20260504020542 | 49 | 186 | 0.9 | 2.6 | 0.00 | 0.00 | 0.00 | 51 | 1013.5 |
| 20260504020105 | 49 | 158 | 0.9 | 2.6 | 0.00 | 0.00 | 0.00 | 51 | 1013.5 |
| 20260504015541 | 49 | 150 | 0.9 | 3.5 | 0.00 | 0.00 | 0.00 | 52 | 1013.5 |
| 20260504015041 | 50 | 148 | 0.9 | 3.5 | 0.00 | 0.00 | 0.00 | 52 | 1013.4 |
| 20260504014605 | 50 | 183 | 0.0 | 1.7 | 0.00 | 0.00 | 0.00 | 50 | 1013.4 |
| 20260504014040 | 51 | 0 | 0.0 | 0.9 | 0.00 | 0.00 | 0.00 | 48 | 1013.4 |
| 20260504013545 | 51 | 0 | 0.0 | 0.9 | 0.00 | 0.00 | 0.00 | 48 | 1013.3 |
| 20260504013055 | 51 | 0 | 0.0 | 1.7 | 0.00 | 0.00 | 0.00 | 47 | 1013.4 |
| 20260504012541 | 51 | 0 | 0.0 | 2.6 | 0.00 | 0.00 | 0.00 | 47 | 1013.3 |
| 20260504012041 | 51 | 0 | 0.0 | 2.6 | 0.00 | 0.00 | 0.00 | 47 | 1013.3 |
| 20260504011552 | 51 | 189 | 0.9 | 2.6 | 0.00 | 0.00 | 0.00 | 47 | 1013.2 |
| 20260504011044 | 51 | 198 | 0.9 | 1.7 | 0.00 | 0.00 | 0.00 | 48 | 1013.2 |
| 20260504010541 | 51 | 198 | 0.9 | 1.7 | 0.00 | 0.00 | 0.00 | 48 | 1013.2 |
| 20260504010058 | 52 | 201 | 0.0 | 0.9 | 0.00 | 0.00 | 0.00 | 47 | 1013.3 |
| 20260504005541 | 52 | 0 | 0.0 | 0.9 | 0.00 | 0.00 | 0.00 | 47 | 1013.3 |
| 20260504005041 | 52 | 0 | 0.0 | 0.9 | 0.00 | 0.00 | 0.00 | 46 | 1013.1 |
| 20260504004548 | 52 | 0 | 0.0 | 1.7 | 0.00 | 0.00 | 0.00 | 47 | 1013.1 |
| 20260504004041 | 53 | 0 | 0.0 | 2.6 | 0.00 | 0.00 | 0.00 | 46 | 1013.0 |
| 20260504003541 | 53 | 0 | 0.9 | 2.6 | 0.00 | 0.00 | 0.00 | 45 | 1013.1 |
| 20260504003045 | 53 | 193 | 0.0 | 2.6 | 0.00 | 0.00 | 0.00 | 44 | 1013.0 |
| 20260504002540 | 53 | 0 | 0.0 | 0.0 | 0.00 | 0.00 | 0.00 | 44 | 1012.9 |
| 20260504002041 | 54 | 0 | 0.0 | 1.7 | 0.00 | 0.00 | 0.00 | 43 | 1012.9 |
| 20260504001553 | 54 | 0 | 0.0 | 1.7 | 0.00 | 0.00 | 0.00 | 43 | 1012.8 |
| 20260504001043 | 54 | 0 | 0.0 | 1.7 | 0.00 | 0.00 | 0.00 | 42 | 1012.8 |
| 20260504000541 | 55 | 290 | 0.0 | 1.7 | 0.00 | 0.00 | 0.00 | 42 | 1012.7 |
| 20260504000046 | 55 | 0 | 0.0 | 0.9 | 0.00 | 0.00 | 0.00 | 41 | 1012.7 |
| 20260503235541 | 55 | 0 | 0.0 | 1.7 | 0.00 | 0.00 | 0.00 | 41 | 1012.6 |
| 20260503235042 | 56 | 0 | 0.0 | 1.7 | 0.00 | 0.00 | 0.00 | 40 | 1012.6 |
| 20260503234550 | 56 | 290 | 0.9 | 4.3 | 0.00 | 0.00 | 0.00 | 40 | 1012.5 |
| 20260503234042 | 56 | 0 | 0.9 | 4.3 | 0.00 | 0.00 | 0.00 | 40 | 1012.4 |
| 20260503233542 | 56 | 286 | 1.7 | 7.8 | 0.00 | 0.00 | 0.00 | 39 | 1012.4 |
| 20260503233047 | 57 | 288 | 1.7 | 7.8 | 0.00 | 0.00 | 0.00 | 39 | 1012.4 |
| 20260503232543 | 57 | 275 | 2.6 | 7.0 | 0.00 | 0.00 | 0.00 | 38 | 1012.3 |
| 20260503232041 | 57 | 295 | 0.9 | 2.6 | 0.00 | 0.00 | 0.00 | 38 | 1012.2 |
| 20260503231552 | 57 | 283 | 0.9 | 2.6 | 0.00 | 0.00 | 0.00 | 38 | 1012.2 |
| 20260503231042 | 57 | 287 | 0.9 | 2.6 | 0.00 | 0.00 | 0.00 | 37 | 1012.2 |
| 20260503230541 | 57 | 275 | 0.9 | 7.8 | 0.00 | 0.00 | 0.00 | 37 | 1012.2 |
| 20260503230109 | 57 | 239 | 0.9 | 7.8 | 0.00 | 0.00 | 0.00 | 38 | 1012.3 |
| 20260503225542 | 57 | 254 | 2.6 | 7.0 | 0.00 | 0.00 | 0.00 | 39 | 1012.3 |
| 20260503225041 | 58 | 281 | 1.7 | 9.6 | 0.00 | 0.00 | 0.00 | 38 | 1012.3 |
| 20260503224550 | 58 | 274 | 1.7 | 9.6 | 0.00 | 0.00 | 0.00 | 38 | 1012.4 |
| 20260503224043 | 58 | 288 | 3.5 | 9.6 | 0.00 | 0.00 | 0.00 | 37 | 1012.5 |
| 20260503223541 | 58 | 278 | 2.6 | 9.6 | 0.00 | 0.00 | 0.00 | 38 | 1012.4 |
| 20260503223102 | 58 | 312 | 5.2 | 10.4 | 0.00 | 0.00 | 0.00 | 37 | 1012.4 |
| 20260503222543 | 58 | 308 | 5.2 | 13.0 | 0.00 | 0.00 | 0.00 | 35 | 1012.4 |
| 20260503222040 | 58 | 316 | 4.3 | 13.0 | 0.00 | 0.00 | 0.00 | 37 | 1012.4 |
| 20260503221552 | 58 | 275 | 4.3 | 8.7 | 0.00 | 0.00 | 0.00 | 35 | 1012.3 |
| 20260503221040 | 58 | 337 | 2.6 | 11.3 | 0.00 | 0.00 | 0.00 | 37 | 1012.4 |
| 20260503220541 | 58 | 277 | 3.5 | 14.8 | 0.00 | 0.00 | 0.00 | 37 | 1012.4 |
| 20260503220055 | 58 | 304 | 2.6 | 14.8 | 0.00 | 0.00 | 0.00 | 36 | 1012.6 |